Regional Weather Roundup
Issued by NWS

Home | Current Version | Previous Version | Text Only | Print | Product List | Glossary Off
Versions: 1 2 3 4 5 6 7 8 9 10 11 12 13 14 15 16 17 18 19 20 21 22 23 24 25 26 27 28 29 30 31 32 33 34 35 36 37 38 39 40 41 42 43 44 45 46 47 48 49 50

565
ASUS43 KMKX 280600
RWRWI

WISCONSIN REGIONAL WEATHER ROUNDUP
NATIONAL WEATHER SERVICE MILWAUKEE/SULLIVAN WI
100 AM CDT TUE MAR 28 2017

NOTE: "FAIR" INDICATES FEW OR NO CLOUDS BELOW 12,000 FEET WITH NO
SIGNIFICANT WEATHER AND/OR OBSTRUCTIONS TO VISIBILITY.

WIZ001-002-006>008-014>016-023>028-280700-
NORTHWEST WISCONSIN

CITY           SKY/WX    TMP DP  RH WIND       PRES   REMARKS
SUPERIOR ARPT  CLEAR     26  26 100 CALM      30.07R
ASHLAND        CLEAR     29  28  96 SW6       30.06R WCI  23
6HR MIN TEMP:  25; 6HR MAX TEMP:  37;

HAYWARD        CLEAR     29  24  82 NE3       30.05R
6HR MIN TEMP:  28; 6HR MAX TEMP:  51;

SIREN          CLEAR     32  29  90 CALM      30.05R
CUMBERLAND     CLEAR     34  30  86 CALM      30.03S
RICE LAKE      CLEAR     32  31  97 CALM      30.05S
CHETEK         CLEAR     30  30  99 N3        30.04S
LADYSMITH      CLEAR     37  30  77 E3        30.05R
EAU CLAIRE     CLEAR     31  30  96 CALM      30.04R
MENOMONIE      CLEAR     34  34  99 CALM      30.05R FOG
NEW RICHMOND   CLOUDY    33  33  99 CALM      30.04R
OSCEOLA        PTCLDY    33  33 100 CALM      30.06S
$$

WIZ003>005-009-010-017-018-280700-
NORTH CENTRAL WISCONSIN

CITY           SKY/WX    TMP DP  RH WIND       PRES   REMARKS
MANITOWISH WTR CLEAR     26  26 100 CALM      30.02S
ARBOR VITAE    CLEAR     32  30  94 CALM      30.02R
WOODRUFF       CLEAR     32  30  94 CALM      30.02R
RHINELANDER    CLEAR     27  26  96 CALM      30.03R
6HR MIN TEMP:  27; 6HR MAX TEMP:  44;

EAGLE RIVER    FOG       28  28 100 CALM      30.02R VSB 1
LAND O LAKES   CLEAR     28  28  99 CALM      30.04R
PHILLIPS       CLEAR     26  25  96 CALM      30.02S
TOMAHAWK       CLEAR     27  26  95 CALM      30.03S
MEDFORD        PTCLDY    30  29  99 CALM      30.02R FOG
MERRILL        FOG       27  27 100 CALM      30.04R VSB 1/2
$$

WIZ029-030-035-036-043>047-280700-
CENTRAL WISCONSIN

CITY           SKY/WX    TMP DP  RH WIND       PRES   REMARKS
WAUSAU         CLEAR     31  31 100 N3        30.02R FOG
6HR MIN TEMP:  29; 6HR MAX TEMP:  43;

MOSINEE        CLOUDY    36  36 100 NE7       30.03R WCI  30
MARSHFIELD     CLEAR     36  34  92 NE5       30.02R WCI  32
6HR MIN TEMP:  34; 6HR MAX TEMP:  42;

STEVENS POINT  CLOUDY    36  36 100 NE3       30.03R
WAUPACA        CLOUDY    42  41  95 CALM      30.03R
WAUTOMA        CLOUDY    41  40  96 VRB3      30.03R
6HR MIN TEMP:  41; 6HR MAX TEMP:  44;

WISC RAPIDS    CLOUDY    40  39  97 NE3       30.04R
6HR MIN TEMP:  37; 6HR MAX TEMP:  43;

CAMP DOUGLAS   CLOUDY    39  39 100 CALM      30.02R
$$

WIZ011>013-019>022-031-037>040-048>050-280700-
NORTHEAST WISCONSIN

CITY           SKY/WX    TMP DP  RH WIND       PRES   REMARKS
ANTIGO         FOG       29  29 100 CALM      30.03R VSB 1
SHAWANO        CLOUDY    39  37  92 CALM      30.04R
OCONTO         CLOUDY    32  32 100 CALM      30.03S
STURGEON BAY   CLOUDY    36  35  96 NW5       30.00F WCI  32
6HR MIN TEMP:  36; 6HR MAX TEMP:  39;

GREEN BAY      CLOUDY    39  37  92 CALM      30.03R
6HR MIN TEMP:  39; 6HR MAX TEMP:  41;

MANITOWOC      NOT AVBL
APPLETON       CLOUDY    37  37 100 N5        30.01R WCI  34
CLINTONVILLE   CLOUDY    39  37  93 CALM      30.03R
OSHKOSH        CLOUDY    39  37  92 CALM      30.02R
6HR MIN TEMP:  38; 6HR MAX TEMP:  42;

$$

WIZ032>034-041-042-053>061-280700-
SOUTHWEST WISCONSIN

CITY           SKY/WX    TMP DP  RH WIND       PRES   REMARKS
LA CROSSE      MOCLDY    41  38  89 N6        30.03R
6HR MIN TEMP:  40; 6HR MAX TEMP:  47;

SPARTA         CLOUDY    41  39  93 CALM      30.04R
VIROQUA        CLOUDY    42  42  99 CALM      30.00R
BOSCOBEL       CLOUDY    46  44  93 N5        30.02R
6HR MIN TEMP:  46; 6HR MAX TEMP:  49;

PRAIRIE DU CHI CLOUDY    45  43  94 NW5       30.01R
PLATTEVILLE    CLOUDY    45  45 100 CALM      30.00S
$$

WIZ056-057-062-063-064-067-068-280700-
SOUTH CENTRAL WISCONSIN

CITY           SKY/WX    TMP DP  RH WIND       PRES   REMARKS
REEDSBURG      CLOUDY    42  42 100 NE5       30.00R FOG
BARABOO/DELLS  CLOUDY    42  40  96 E3        30.00S FOG
LONE ROCK      NOT AVBL
MINERAL POINT  CLOUDY    46  46 100 NE5       29.99S FOG
MADISON        CLOUDY    42  41  96 N5        30.00S
6HR MIN TEMP:  42; 6HR MAX TEMP:  47; 6HR PCP: TRACE;

MIDDLETON      CLOUDY    44  44 100 E3        30.00S
WATERTOWN      CLOUDY    40  40 100 NE3       30.01R FOG
MONROE         CLOUDY    45  45 100 N6        29.99R FOG
JANESVILLE     CLOUDY    43  43 100 E8        30.00R FOG
$$

WIZ051-052-058>065-066-070>072-280700-
SOUTHEAST WISCONSIN

CITY           SKY/WX    TMP DP  RH WIND       PRES   REMARKS
MILWAUKEE      CLOUDY    40  35  83 N7        30.01R
6HR MIN TEMP:  38; 6HR MAX TEMP:  40; 6HR PCP: TRACE;

WAUKESHA       CLOUDY    36  36 100 N3        30.01S FOG
MILWAUKEE/TIMM CLOUDY    37  34  87 N5        30.02R WCI  34
RACINE         CLOUDY    38  34  85 N7        30.02S WCI  33
6HR MIN TEMP:  38; 6HR MAX TEMP:  40;

KENOSHA        CLOUDY    39  36  89 N8        30.00S WCI  33
6HR MIN TEMP:  39; 6HR MAX TEMP:  43;

FOND DU LAC    CLOUDY    40  35  83 NE3       30.02R
6HR MIN TEMP:  40; 6HR MAX TEMP:  43;

SHEBOYGAN      CLOUDY    38  34  85 NW3       30.02R
6HR MIN TEMP:  37; 6HR MAX TEMP:  38;

WEST BEND      CLOUDY    36  36 100 N3        30.02R
JUNEAU         CLOUDY    40  39  97 CALM      30.03R FOG
$$

LSZ147-162-280700-
LAKE SUPERIOR

STATION/POSITION TIME  TEMP    WIND        PRES    WAVE
                       AIR SEA DIR/SP/G            HT/PER
                 (UTC) (F)     (DEG/KT/KT) (MB)    (FT/S)
DEVILS ISLAND    0500   37      CALM  /  1 1018.4R
PORT WING        0540   28     160/  2/  4 1017.9R
SAXON HARBOR     0540   28     200/  1/  2 1017.6R
$$

LMZ867-665-643>646-280700-
LAKE MICHIGAN

STATION/POSITION TIME  TEMP    WIND        PRES    WAVE
                       AIR SEA DIR/SP/G            HT/PER
                 (UTC) (F)     (DEG/KT/KT) (MB)    (FT/S)
CHAMBERS ISLAND  0540   34     320/  2/  4 1016.6S
NORTHPORT PIER   0540   35     320/  2/  6 1016.6F
SISTER BAY       0436   33        CALM       N/A
KEWAUNEE LAKESHO 0530   37     320/  2/  4 1016.1R
SHEBOYGAN LAKESH 0500   38     330/  5/  6 1016.7R
PORT WASHINGTON  0540   39     330/  4/  6 1017.6R
MILWAUKEE LAKESH 0520   39     350/  7/  9   N/A
KENOSHA   LAKESH 0500   39      10/  6/  9 1015.9
$$

TC  - TEMPERATURE IN CELSIUS
VSB - VISIBILITY IN STATUTE MILES
WCI - WIND CHILL INDEX
HX  - HEAT INDEX





USA.gov is the U.S. government's official web portal to all federal, state and local government web resources and services.